Flag for U.S.A. Weather past 2 weeks in Glendale, Arizona, U.S.A.

Now
67 °F

Sunny.


Feels Like: 67 °F
Forecast: 67 / 80 °F
Wind: No wind

Location: Phoenix-Deer Valley Municipal Airport


UV Index: 0 (Low)

Visibility: 10 mi


Pressure: 29.82 "Hg

Humidity: 26%

Dew point: 31 °F

Location of GlendaleLocation

Historic Weather in Glendale

°F

Glendale temperature yesterday

Maximum temperature yesterday: 88 °F (at 2:53 PM)
Minimum temperature yesterday: 60 °F (at 2:53 AM)
Average temperature yesterday: 76 °F

Past Weeks' High & Low Weather Summary

 TemperatureHumidityPressure
High94 °F (Apr 10, 3:53 PM)65% (Apr 3, 5:53 AM)30.10 "Hg (Apr 3, 5:53 AM)
Low44 °F (Apr 3, 5:53 AM)3% (Apr 10, 3:53 PM)29.61 "Hg (Apr 12, 4:53 PM)
Average72 °F14%29.84 "Hg
* Reported Apr 3 5:53 AM — Apr 18 5:53 AM, Glendale, Weather by CustomWeather, © 2014

Note: Actual official high and low records may vary slightly from our data, if they occured in-between our weather recording intervals... More about our weather records

Advertising

Historic Weather Conditions — Data for Previous 24 hours

 ConditionsComfort  
Time TempWeatherWind HumidityBarometerVisibility
5:53 AM
Apr 18
65 °FClear.No wind26%29.80 "Hg10 mi
4:53 AM66 °FClear.6 mph25%29.78 "Hg10 mi
3:53 AM69 °FClear.3 mph21%29.78 "Hg10 mi
2:53 AM69 °FClear.6 mph23%29.78 "Hg10 mi
1:53 AM72 °FClear.6 mph21%29.77 "Hg10 mi
12:53 AM73 °FClear.6 mph19%29.77 "Hg10 mi
11:53 PM
Apr 17
73 °FClear.3 mph17%29.78 "Hg10 mi
10:53 PM73 °FClear.6 mph15%29.77 "Hg10 mi
9:53 PM75 °FClear.3 mph12%29.76 "Hg10 mi
8:53 PM79 °FClear.5 mph10%29.75 "Hg10 mi
7:53 PM81 °FClear.3 mph10%29.75 "Hg10 mi
6:53 PM85 °FSunny.5 mph8%29.74 "Hg10 mi
5:53 PM86 °FSunny.No wind7%29.75 "Hg10 mi
4:53 PM88 °FSunny.7 mph7%29.75 "Hg10 mi
3:53 PM87 °FSunny.3 mph7%29.76 "Hg10 mi
2:53 PM88 °FSunny.7 mph7%29.79 "Hg10 mi
1:53 PM86 °FSunny.6 mph7%29.81 "Hg10 mi
12:53 PM84 °FSunny.5 mph8%29.83 "Hg10 mi
11:53 AM83 °FSunny.3 mph8%29.86 "Hg10 mi
10:53 AM81 °FSunny.5 mph9%29.87 "Hg10 mi
9:53 AM79 °FSunny.5 mph10%29.88 "Hg10 mi
8:53 AM77 °FSunny.6 mph10%29.87 "Hg10 mi
7:53 AM70 °FSunny.5 mph16%29.86 "Hg10 mi
Weather by CustomWeather, © 2014

See weather overview